{"data":{"norad_id":67422,"epoch":"2026-05-25T02:01:46.897248Z","epoch_age_seconds":77991,"freshness":"FRESH","line1":"1 67422U 26005U   26145.08457057  .00014584  00000+0  53835-3 0  9996","line2":"2 67422  42.9979 166.2377 0001189 263.0996  96.9720 15.27584861 20382","mean_motion":15.27584861,"eccentricity":0.0001189,"inclination_deg":42.9979,"raan_deg":166.2377,"arg_perigee_deg":263.0996,"mean_anomaly_deg":96.972,"bstar":0.00053835,"rev_number":2038,"period_min":94.266448742974,"perigee_km":482.21874719935,"apogee_km":483.85033379168,"semimajor_km":6861.1715404955,"source":"CELESTRAK","updated_at":"2026-05-25T13:38:21.556342Z"}}